Regional Weather Roundup
Issued by NWS

Home | Current Version | Previous Version | Text Only | Print | Product List | Glossary On
Versions: 1 2 3 4 5 6 7 8 9 10 11 12 13 14 15 16 17 18 19 20 21 22 23 24 25 26 27 28 29 30 31 32 33 34 35 36 37 38 39 40 41 42 43 44 45 46 47 48 49 50
000
ASUS43 KDTX 261610
RWRMI
MICHIGAN HOURLY REGIONAL WEATHER ROUNDUP
NATIONAL WEATHER SERVICE DETROIT/PONTIAC MI
ISSUED BY NATIONAL WEATHER SERVICE GRAND RAPIDS MI
1200 PM EDT MON JUN 26 2017

NOTE: "FAIR" INDICATES FEW OR NO CLOUDS BELOW 12,000 FEET WITH NO
SIGNIFICANT WEATHER AND/OR OBSTRUCTION TO VISIBILITY.

MIZ047>049-052>055-059>063-066>070-074>076-081>083-261700-
SOUTHEAST LOWER MICHIGAN

CITY           SKY/WX    TMP DP  RH WIND       PRES   REMARKS
ADRIAN         CLOUDY    68  44  42 NW15G25   30.07S
ALMA           MOSUNNY   64  47  53 W15G32    30.01F
ANN ARBOR      CLOUDY    67  47  48 W20G30    30.04S
BAD AXE        PTSUNNY   63  49  61 W15G22    29.98R
DETROIT CITY   MOSUNNY   66  46  48 NW14G22   30.03S
DETROIT        CLOUDY    68  46  45 W14G21    30.03F
FLINT          MOSUNNY   67  47  48 W16       30.01F
GROSSE ILE     CLOUDY    67  47  48 W13G20    30.03S
HILLSDALE      CLOUDY    64  43  45 W13G23    30.06F
HOWELL         PTSUNNY   65  45  48 W15       30.03S

CITY           SKY/WX    TMP DP  RH WIND       PRES   REMARKS
JACKSON        PTSUNNY   64  43  46 W18G26    30.05S
LANSING        MOSUNNY   68  44  42 W22G35    30.03F
MASON          PTSUNNY   65  47  53 W16G24    30.04S
MONROE         MOSUNNY   68  46  45 W14G20    30.04S
MT. CLEMENS    PTSUNNY   66  47  50 W14       30.01R
PONTIAC        PTSUNNY   64  47  53 SW16G24   30.01F
PORT HOPE        N/A     63  51  65 W10G20    29.94F
PORT HURON     PTSUNNY   64  46  52 W7G16     30.00S
TRI CITIES     PTSUNNY   63  50  62 W13       30.00S
YPSILANTI      PTSUNNY   69  46  43 W15       30.04S
$$
MIZ043>046-050>051-056>058-064>065-071>073-077>080-261700-
SOUTHWEST LOWER MICHIGAN

CITY           SKY/WX    TMP DP  RH WIND       PRES   REMARKS
BATTLE CREEK   PTSUNNY   65  43  44 W13G23    30.07S
BENTON HARBOR  SUNNY     67  45  45 W10       30.09S
BIG RAPIDS     PTSUNNY   62  41  47 W17G30    30.00S
COLDWATER      PTSUNNY   67  39  36 W14G26    30.08S
HOLLAND        MOSUNNY   65  48  54 W14G22    30.07S
GRAND RAPIDS   MOSUNNY   64  45  49 NW18G28   30.04S
KALAMAZOO      PTSUNNY   66  38  35 NW17G29   30.07F
MARSHALL       CLOUDY    66  42  42 W17G23    30.06S
MOUNT PLEASANT MOSUNNY   64  46  52 W16G23    29.98F
MUSKEGON       MOSUNNY   64  49  57 W14G25    30.05S
STURGIS        PTSUNNY   68  45  44 W12G17    30.07F
$$
MIZ016>042-261700-
NORTHERN LOWER MICHIGAN

CITY           SKY/WX    TMP DP  RH WIND       PRES   REMARKS
ALPENA         LGT RAIN  57  56  96 NW3       29.94R FOG
BEAVER ISLAND  CLOUDY    56  53  87 NW6       29.95S
BELLAIRE       CLOUDY    58  51  76 W12G17    29.96S
CADILLAC       CLOUDY    58  45  60 W14G20    29.98S
CHARLEVOIX     CLOUDY    58  54  86 W12       29.97S
GAYLORD        LGT RAIN  56  50  80 W18       29.94S
HOUGHTON LAKE  CLOUDY    61  45  55 W13G22    29.97S
MANISTEE       CLOUDY    57  48  72 W18       30.01S
OSCODA         MOSUNNY   65  49  54 W16G25    29.93S
PELLSTON       LGT RAIN  58  54  86 W8        29.92S
TRAVERSE CITY  PTSUNNY   60  46  59 W13G20    29.96R
LUDINGTON      CLOUDY    57  48  70 W12G17    30.02S
$$
MIZ007>008-015-261700-
EASTERN UPPER MICHIGAN

CITY           SKY/WX    TMP DP  RH WIND       PRES   REMARKS
KINROSS        LGT RAIN  53  52  96 N8        29.93F
MACKINAC ISLAN RAIN      54  54 100 NE7       29.93R
NEWBERRY       CLOUDY    52  51  97 N3        29.94S FOG
S. S. MARIE    RAIN      55  53  93 CALM      29.94S FOG
$$
MIZ004>006-011>014-085-261700-
CENTRAL UPPER MICHIGAN

CITY           SKY/WX    TMP DP  RH WIND       PRES   REMARKS
MANISTIQUE     CLOUDY    55  52  89 NW5       29.95S
ESCANABA       CLOUDY    56  50  80 NW8       29.97S
MENOMINEE      CLOUDY    55  46  71 N12       30.00S
SAWYER-GWINN   CLOUDY    50  48  93 N12G18    30.00R
$$
MIZ001>003-009>011-084-261700-
WESTERN UPPER MICHIGAN

CITY           SKY/WX    TMP DP  RH WIND       PRES   REMARKS
IRON MOUNTAIN  CLOUDY    54  46  74 N9        29.99S
HOUGHTON       LGT RAIN  51  47  86 NW9       30.04R
COPPER HARBOR    N/A     56  47  71 N5        30.02F
IRONWOOD       PTSUNNY   54  46  76 N5        30.11R
$$

ABBREVIATIONS USED IN REMARKS
   TC - TEMPERATURE IN CELSIUS
  WCI - WIND CHILL INDEX
   HX - HEAT INDEX
  VSB - VISIBILITY




USA.gov is the U.S. government's official web portal to all federal, state and local government web resources and services.